Flag for Canada Weather past 2 weeks in Owen Sound, Ontario, Canada

Now
39 °F

Partly sunny.


Feels Like: 35 °F
Forecast: 32 / 48 °F
Wind: 6 mph from North

Location: Wiarton

Current Time: Apr 26, 2015 at 10:09:47 AM

Latest Report: Apr 26, 2015 at 9:00 AM


Visibility: 15 mi

Pressure: 29.93 "Hg

Humidity: 75%

Dew point: 32 °F

Location of Owen SoundLocation

Historic Weather in Owen Sound — Graph

°F

Owen Sound temperature yesterday

Maximum temperature yesterday: 46 °F (at 2:00 PM)
Minimum temperature yesterday: 23 °F (at 4:00 AM)
Average temperature yesterday: 37 °F

Past Weeks' High & Low Weather Summary

 TemperatureHumidityPressure
High68 °F (Apr 13, 11:00 AM)100% (Apr 14, 1:00 AM)30.45 "Hg (Apr 14, 1:00 AM)
Low23 °F (Apr 25, 4:00 AM)23% (Apr 14, 5:00 PM)29.23 "Hg (Apr 20, 3:45 PM)
Average43 °F68%29.96 "Hg
* Reported Apr 11 9:00 AM — Apr 26 9:00 AM, Owen Sound, Weather by CustomWeather, © 2015

Note: Actual official high and low records may vary slightly from our data, if they occured in-between our weather recording intervals... More about our weather records

Advertising

Owen Sound weather history for previous 24 hours

 ConditionsComfort  
Time TempWeatherWind HumidityBarometerVisibility
9:00 AM
Sun, Apr 26
39 °FPartly sunny.6 mph75%29.93 "Hg15 mi
8:00 AM39 °FScattered clouds.5 mph70%29.92 "Hg15 mi
7:00 AM37 °FPassing clouds.3 mph75%29.90 "Hg15 mi
6:00 AM36 °FPassing clouds.5 mph75%29.89 "Hg15 mi
5:00 AM36 °FClear.5 mph75%29.88 "Hg15 mi
4:00 AM37 °FClear.8 mph70%29.87 "Hg15 mi
3:00 AM37 °FClear.12 mph70%29.86 "Hg15 mi
2:00 AM37 °FClear.5 mph65%29.87 "Hg15 mi
1:00 AM39 °FClear.6 mph56%29.88 "Hg15 mi
12:00 AM37 °FClear.5 mph65%29.89 "Hg15 mi
11:00 PM
Sat, Apr 25
39 °FPassing clouds.3 mph65%29.90 "Hg15 mi
10:00 PM39 °FPassing clouds.5 mph65%29.90 "Hg15 mi
9:00 PM41 °FPartly sunny.2 mph61%29.88 "Hg15 mi
8:00 PM45 °FPartly sunny.5 mph49%29.88 "Hg15 mi
7:00 PM46 °FPassing clouds.8 mph46%29.87 "Hg15 mi
6:00 PM46 °FPassing clouds.8 mph46%29.88 "Hg15 mi
5:00 PM46 °FPassing clouds.9 mph46%29.89 "Hg15 mi
4:00 PM46 °FPassing clouds.10 mph50%29.89 "Hg15 mi
3:00 PM46 °FPassing clouds.13 mph46%29.92 "Hg15 mi
2:00 PM46 °FPassing clouds.12 mph40%29.94 "Hg15 mi
1:00 PM45 °FPassing clouds.8 mph49%29.98 "Hg15 mi
12:00 PM43 °FPassing clouds.3 mph49%30.00 "Hg15 mi
11:00 AM43 °FPassing clouds.5 mph49%30.01 "Hg15 mi
10:00 AM37 °FPassing clouds.5 mph65%30.01 "Hg15 mi
Weather by CustomWeather, © 2015

See weather overviewHow to use our weather pages